Location: *
(58.7167°N, 26.1833°E)
Time: 08:12:54
(UTC+00:00)

ADEOS II - Pass Details

Date: 25 August 2019
Orbit: 799 x 802 km, 98.5° (Epoch: 18 September)

Event Time Altitude Azimuth Distance (km) Brightness Sun altitude
Rises 23:30:40 0° 23° (NNE) 3,324 7.0 -19.1°
Reaches altitude 10° 23:33:50 10° 42° (NE) 2,387 5.6 -19.0°
Maximum altitude 23:37:19 18° 84° (E) 1,904 4.3 -18.8°
Drops below altitude 10° 23:40:47 10° 126° (SE) 2,376 4.4 -18.7°
Enters shadow 23:42:27 - 138° (SE) 2,841 4.7 -18.6°
